This is the latest recevied weather packets stored in our database for station/object VE2JJ-13. If no packets are shown the sender has not sent any weather packets the latest 10 day(s).
| Time | Temp. | Humidity | Pressure | Rain* | Wind** | Luminosity | Snow |
|---|---|---|---|---|---|---|---|
| 1777736957 | 8.89° C | 76% | 1005.1 hPa | 0 mm | - | - | - |
| 1777736629 | 8.33° C | 76% | 1005.1 hPa | 0 mm | - | - | - |
| 1777736331 | 8.33° C | 76% | 1005.3 hPa | 0 mm | - | - | - |
| 1777736031 | 8.33° C | 74% | 1005.3 hPa | 0 mm | - | - | - |
| 1777736000 | 8.33° C | 74% | 1005.3 hPa | 0 mm | - | - | - |
| 1777735698 | 8.33° C | 77% | 1005.4 hPa | 0 mm | - | - | - |
| 1777735397 | 7.78° C | 80% | 1005.4 hPa | 0 mm | - | - | - |
| 1777735097 | 7.22° C | 79% | 1005.4 hPa | 0 mm | - | - | - |
| 1777734767 | 7.22° C | 81% | 1005.5 hPa | 0.25 mm | - | - | - |
| 1777734468 | 7.22° C | 81% | 1005.5 hPa | 0.25 mm | - | - | - |
| 1777734167 | 6.67° C | 83% | 1005.5 hPa | 0.25 mm | - | - | - |
| 1777733837 | 6.67° C | 84% | 1005.5 hPa | 0.25 mm | - | - | - |
| 1777733538 | 6.11° C | 85% | 1005.7 hPa | 0.51 mm | - | - | - |
| 1777733237 | 5.56° C | 84% | 1005.7 hPa | 0.51 mm | - | - | - |
| 1777732938 | 5.56° C | 83% | 1005.7 hPa | 0.51 mm | - | - | - |
| 1777732608 | 5.56° C | 84% | 1005.8 hPa | 0.76 mm | - | - | - |
| 1777732277 | 6.11° C | 84% | 1005.8 hPa | 0.76 mm | - | - | - |
| 1777731976 | 6.11° C | 84% | 1005.8 hPa | 0.76 mm | - | - | - |
| 1777731676 | 6.11° C | 85% | 1005.8 hPa | 1.02 mm | - | - | - |
| 1777731377 | 5.56° C | 84% | 1005.8 hPa | 0.76 mm | - | - | - |
| 1777731050 | 5.56° C | 84% | 1005.8 hPa | 0.76 mm | - | - | - |
| 1777730748 | 5.56° C | 85% | 1005.9 hPa | 1.02 mm | - | - | - |
| 1777730416 | 5.56° C | 86% | 1005.9 hPa | 1.02 mm | - | - | - |
| 1777730117 | 5.56° C | 86% | 1005.9 hPa | 1.02 mm | - | - | - |
| 1777729790 | 5.56° C | 87% | 1006 hPa | 1.02 mm | - | - | - |
* Rain latest hour (hover to see other rain measurements)
** Current wind speed in m/s (hover to see current wind gust speed)